Location: Julian California
(33.0790°N, 116.6010°W)
Time: 13:41:30
(UTC-07:00)

Sich 1 - Pass Details

Date: 12 July 2018
Orbit: 595 x 626 km, 82.5° (Epoch: 21 July)

Event Time Altitude Azimuth Distance (km) Brightness Sun altitude
Exits shadow 21:53:42 25° 71° (ENE) 1,265 4.4 -20.5°
Drops below altitude 10° 21:56:34 10° 33° (NNE) 1,999 5.8 -20.9°
Sets 21:59:04 0° 21° (NNE) 2,909 6.9 -21.3°
